Terminal Aerodrome Forecast
Issued by NWS Blacksburg, VA

Current Version | Previous Version | Text Only | Print | Product List | Glossary Off
Versions: 1 2 3 4 5 6 7 8 9 10 11 12 13 14 15 16 17 18 19 20 21 22 23 24 25 26 27 28 29 30 31 32 33 34 35 36 37 38 39 40 41 42 43 44 45 46 47 48 49 50

000
FTUS41 KRNK 121904 AAA
TAFBLF
TAF AMD
KBLF 121904Z 1219/1318 33003KT P6SM SCT009 OVC022
     FM130000 VRB03KT 5SM BR VCSH OVC012
      TEMPO 1302/1306 2SM BR OVC007
     FM130600 VRB03KT 3SM -RA BR OVC005
      TEMPO 1309/1312 1SM BR=

USA.gov is the U.S. government's official web portal to all federal, state and local government web resources and services.